User: anonymous   Login
Location: Greenwich
(51.4790°N, 0.0090°E)
Time: 22:50:13
(UTC+01:00)
Language:

Courier 1B - Orbit

View from above orbital plane
View from above orbital plane
View from above satellite
View from above satellite

Ground track
Ground track

The orbit data is extracted from the following two-line orbital elements,

1 00058U 60013A   24102.64607372  .00000120  00000-0  56031-4 0  9999
2 00058  28.3263 221.3532 0164884  92.1832 269.7602 13.46371614126639
Epoch (UTC): 11 April 2024 15:30:20
Eccentricity: 0.0164884
inclination: 28.3263°
perigee height: 962 km
apogee height: 1209 km
right ascension of ascending node: 221.3532°
argument of perigee: 92.1832°
revolutions per day: 13.46371614
mean anomaly at epoch: 269.7602°
orbit number at epoch: 12663

The dashed part of the orbit path shows where the satellite is in the earth's shadow,  

DLR